This is the latest recevied weather packets stored in our database for station/object K7CTM. If no packets are shown the sender has not sent any weather packets the latest 10 day(s).
| Time | Temp. | Humidity | Pressure | Rain* | Wind** | Luminosity | Snow |
|---|---|---|---|---|---|---|---|
| 1778099565 | 16.67° C | 25% | 1022.3 hPa | 0 mm | - | 792 W/m² | - |
| 1778099262 | 15.56° C | 24% | 1022.5 hPa | 0 mm | - | 813 W/m² | - |
| 1778098959 | 16.11° C | 27% | 1022.5 hPa | 0 mm | - | 816 W/m² | - |
| 1778098656 | 15.56° C | 26% | 1022.7 hPa | 0 mm | - | 885 W/m² | - |
| 1778098352 | 16.11° C | 26% | 1022.7 hPa | 0 mm | - | 840 W/m² | - |
| 1778098049 | 15° C | 26% | 1022.9 hPa | 0 mm | - | 904 W/m² | - |
| 1778097746 | 15° C | 26% | 1022.8 hPa | 0 mm | - | 680 W/m² | - |
| 1778097442 | 15.56° C | 25% | 1023.2 hPa | 0 mm | - | 768 W/m² | - |
| 1778097138 | 14.44° C | 28% | 1023.1 hPa | 0 mm | - | 595 W/m² | - |
| 1778096830 | 15° C | 28% | 1023.2 hPa | 0 mm | - | 580 W/m² | - |
| 1778096527 | 15° C | 26% | 1023.1 hPa | 0 mm | - | 847 W/m² | - |
| 1778096225 | 15° C | 30% | 1023.5 hPa | 0 mm | - | 833 W/m² | - |
| 1778095921 | 15° C | 29% | 1023.2 hPa | 0 mm | - | 850 W/m² | - |
| 1778095618 | 14.44° C | 28% | 1023.6 hPa | 0 mm | - | 865 W/m² | - |
| 1778095314 | 14.44° C | 26% | 1023.6 hPa | 0 mm | - | 858 W/m² | - |
| 1778095011 | 13.89° C | 29% | 1023.7 hPa | 0 mm | - | 860 W/m² | - |
| 1778094707 | 13.89° C | 28% | 1023.8 hPa | 0 mm | - | 864 W/m² | - |
| 1778094405 | 13.89° C | 29% | 1024 hPa | 0 mm | - | 858 W/m² | - |
| 1778094101 | 13.89° C | 28% | 1024.1 hPa | 0 mm | - | 862 W/m² | - |
| 1778093798 | 15° C | 29% | 1024.4 hPa | 0 mm | - | 862 W/m² | - |
| 1778093494 | 13.89° C | 27% | 1024.3 hPa | 0 mm | - | 868 W/m² | - |
| 1778093192 | 12.78° C | 31% | 1024.3 hPa | 0 mm | - | 853 W/m² | - |
| 1778092889 | 12.78° C | 30% | 1024.5 hPa | 0 mm | - | 866 W/m² | - |
| 1778092586 | 13.33° C | 28% | 1024.4 hPa | 0 mm | - | 857 W/m² | - |
| 1778092282 | 13.33° C | 25% | 1024.4 hPa | 0 mm | - | 851 W/m² | - |
* Rain latest hour (hover to see other rain measurements)
** Current wind speed in m/s (hover to see current wind gust speed)